{"data":{"norad_id":65961,"intl_designator":"2025-228Q","name":"KUIPER-00135","alt_names":[],"object_type":"PAYLOAD","status":"ACTIVE","operator":null,"country":"US","launch_date":"2025-10-14","launch_site_code":"AFETR","launch_vehicle":null,"mission":null,"orbit_class":"UNKNOWN","rcs_meters":null,"size_class":null,"mass_kg":null,"dimensions":null,"purposes":[],"wikipedia_slug":null,"has_3d_model":false,"image_url":null,"decayed_at":null,"tle_current":{"epoch":"2026-09-20T05:25:13.283616Z","epoch_age_seconds":164201,"freshness":"FRESH","line1":"1 65961U 25228Q   26263.22584819  .00002378  00000+0  34084-3 0  9995","line2":"2 65961  51.9010 210.4690 0000760  81.6694 278.4355 14.79929147 52176","mean_motion":14.79929147,"eccentricity":7.6e-5,"inclination_deg":51.901,"raan_deg":210.469,"arg_perigee_deg":81.6694,"mean_anomaly_deg":278.4355,"bstar":0.00034084,"rev_number":5217,"period_min":97.301955496928,"perigee_km":629.0152081234,"apogee_km":630.08037621181,"semimajor_km":7007.6847921676,"source":"CELESTRAK","updated_at":"2026-09-21T09:00:15.681526Z"}}}